NORSAT 2

导读

NORSAT 2是挪威(NO)于2017年7月14日成功发射的商业通信卫星,依托成熟航天技术打造,主要服务于海事通信、数据传输等领域。它搭载多频段转发器,可覆盖北大西洋等关键海域,为船舶航行、近海作业提供稳定的通信支持,进一步提升了北极地区的通信覆盖能力,助力海洋经济开发与全球航运安全保障,是挪威拓展太空通信基础设施的重要成果。

Basic Information
目录编号:
42828
目录名称:
NORSAT 2
国际标识:
2017-042D
轨道中心:
EARTH
卫星名称:
NORSAT 2
卫星全名:
--
卫星状态:
在轨 (已飞行3339 天)
发射日期:
2017-07-14 UTC
国别 :
挪威 (NO)
星等 :
--
Orbit Information
数据来源 国际轨道数据 AOE轨道数据
星历时间 2026-09-03T18:19:20+0800
1天前
查看轨道信息
2026-09-01T10:00:00+0800
3天前
查看轨道信息
半长轴 6874.087km 6874.199km
偏心率 0.0010269 0.0010028
轨道倾角 97.410° 97.412°
近地点辐角 131.305° 138.762°
升交点赤经 58.739° 56.421°
平近点角 228.908° 320.598°
近地点 488.891km 489.168km
远地点 503.009km 502.956km
周期 94.533分钟 94.535分钟
每日圈数 15.23282 15.232446
Detailed Information
使用方式:
暂无
2D Orbit Map
3D Orbit Map
Orbit Altitude Analysis Chart
Orbit Inclination Analysis Chart
Orbit Comprehensive Analysis Chart
View Comprehensive Chart
Conjunction Data List
Event ID Objects TCA Miss Dist (km) Collision Risk Probability Collision Risk Index (CRI) Action
CDM_260905-044704-282806-863122
NORSAT 2 (42828)
OBJECT E (68631)
2026-09-05T
04:47:58+0000
0.551 km
远距离
1.63632E-4 高风险 0.79
CDM_260905-044704-282806-863222
NORSAT 2 (42828)
2026-09-05T
04:47:46+0000
1.343 km
极远距离
9.768788E-6 低风险 0.55